Retour au catalogue

ARIANE 5 R/B

ActifGTO
NORAD 27832·ROCKET BODY·🇫🇷 France

Lancé Jun 11, 2003 depuis Guiana Space Centre

Loading…

TLE

VieillissantSource: Space-Track

Époque: Sep 14, 2026, 11:24 UTC

1 27832U 03028C   26257.47563890 -.00000047  00000-0  18740-3 0  9994
2 27832   7.0377  82.4711 7175473  10.9677 358.8001  2.24845407191063

Suivez ARIANE 5 R/B en temps réel avec AllMySat

Download on the App Store